STARLINK-4596 (53624 NORAD) Tracking and Keplerian Element Data

This shows tracking and keplerian element data for the satellite.

Feedback or suggestion? Click here.




ElementValue
Catalog53624
NameSTARLINK-4596
Epoch Orbit1323
Epoch Day325.25001157
Epoch Year2022
RAAN240.8161
Inclination53.2155
Eccentricity0.0001668
Argument of Perigee53.2375
Mean Anonmoly137.9932
Mean Motion15.08840081
Decay Rate8.499E-05
L11 53624U 22104AN 22325.25001157 .00008499 00000+0 55141-3 0 9992
L22 53624 53.2155 240.8161 0001668 53.2375 137.9932 15.08840081 13239



Live tracking and technical data element details for STARLINK-4596 (NORAD 53624). STARLINK-4596 can be tracked NOW for your location showing map with azimuth and elevation plus other details from your city location.







IsCatalogInMostPopularTable: catalog: 53624, numindb: 2
Update: records affected: 1



GetName: 53624 STARLINK-4596

Hit Count: updated at: Thu, 08 Dec 2022 20:25:42 GMT